Orbital Elements at Epoch 2459000.5 (2020-May-31.0) TDB
Reference: JPL 26 (heliocentric ecliptic J2000)
Element | Value | Uncertainty (1-sigma) | Units |
e | .1246146972909031 | 4.4472e-08 | |
a | 3.040106313868401 | 1.8703e-08 | au |
q | 2.661264385833527 | 1.3474e-07 | au |
i | 10.50004472378522 | 4.9646e-06 | deg |
node | 245.0143816527655 | 2.4323e-05 | deg |
peri | 176.8328281054925 | 3.1346e-05 | deg |
M | 38.0674542483675 | 1.7888e-05 | deg |
tp | 2458795.769325349383 (2019-Nov-08.26932535) | 9.6165e-05 | TDB |
period | 1936.116935830637 5.30 | 1.7867e-05 4.892e-08 | d yr |
n | .1859391823591234 | 1.7159e-09 | deg/d |
Q | 3.418948241903275 | 2.1034e-08 | au |
|
| | Orbit Determination Parameters
Additional Information
|